Time,TemperatureF,DewpointF,PressureIn,WindDirection,WindDirectionDegrees,WindSpeedMPH,WindSpeedGustMPH,Humidity,HourlyPrecipIn,Conditions,Clouds,dailyrainin,SoftwareType,DateUTC
2013-10-18 00:14:00,48.0,48.0,29.45,SSE,157,0.0,1.0,99,0.60,,,0.02,TxWx,2013-10-18 04:14:00,
2013-10-18 00:19:00,48.0,48.0,29.44,South,180,0.0,0.0,99,0.60,,,0.02,TxWx,2013-10-18 04:19:00,
2013-10-18 00:24:00,48.0,48.0,29.44,SSE,157,1.0,1.0,99,0.60,,,0.02,TxWx,2013-10-18 04:24:00,
2013-10-18 00:29:00,48.0,48.0,29.44,SE,135,1.0,1.0,99,0.60,,,0.02,TxWx,2013-10-18 04:29:00,
2013-10-18 00:34:00,48.0,48.0,29.45,ESE,112,2.0,2.0,99,0.60,,,0.03,TxWx,2013-10-18 04:34:00,
2013-10-18 00:39:00,47.0,47.0,29.45,South,180,1.0,3.0,99,0.60,,,0.03,TxWx,2013-10-18 04:39:00,
2013-10-18 00:44:00,47.0,47.0,29.44,SE,135,2.0,2.0,99,0.60,,,0.06,TxWx,2013-10-18 04:44:00,
2013-10-18 00:50:00,47.0,47.0,29.43,South,180,0.0,1.0,100,0.60,,,0.09,TxWx,2013-10-18 04:50:00,
2013-10-18 00:55:00,47.0,47.0,29.44,SSW,202,0.0,1.0,100,0.60,,,0.10,TxWx,2013-10-18 04:55:00,
2013-10-18 01:00:00,47.0,47.0,29.44,West,270,4.0,4.0,100,0.60,,,0.11,TxWx,2013-10-18 05:00:00,
2013-10-18 01:05:00,47.0,47.0,29.44,SW,225,3.0,3.0,100,0.60,,,0.11,TxWx,2013-10-18 05:05:00,
2013-10-18 01:10:00,47.0,47.0,29.44,WSW,247,2.0,4.0,100,0.60,,,0.11,TxWx,2013-10-18 05:10:00,
2013-10-18 01:15:00,47.0,47.0,29.44,South,180,1.0,1.0,100,0.00,,,0.11,TxWx,2013-10-18 05:15:00,
2013-10-18 01:20:00,47.0,47.0,29.45,West,270,5.0,5.0,100,0.00,,,0.11,TxWx,2013-10-18 05:20:00,
2013-10-18 01:25:00,47.0,47.0,29.45,WNW,292,3.0,4.0,100,0.00,,,0.11,TxWx,2013-10-18 05:25:00,
2013-10-18 01:30:00,48.0,48.0,29.45,WSW,247,3.0,3.0,100,0.00,,,0.11,TxWx,2013-10-18 05:30:00,
2013-10-18 01:35:00,48.0,48.0,29.45,SW,225,1.0,1.0,100,0.00,,,0.11,TxWx,2013-10-18 05:35:00,
2013-10-18 01:40:00,47.0,47.0,29.45,West,270,3.0,4.0,100,0.00,,,0.12,TxWx,2013-10-18 05:40:00,
2013-10-18 01:45:00,47.0,47.0,29.46,SW,225,1.0,2.0,100,0.60,,,0.12,TxWx,2013-10-18 05:45:00,
2013-10-18 01:50:00,47.0,47.0,29.45,SW,225,1.0,2.0,100,0.60,,,0.12,TxWx,2013-10-18 05:50:00,
2013-10-18 01:55:00,47.0,47.0,29.45,SW,225,2.0,3.0,100,0.00,,,0.13,TxWx,2013-10-18 05:55:00,
2013-10-18 02:00:00,47.0,47.0,29.45,West,270,2.0,2.0,100,0.00,,,0.13,TxWx,2013-10-18 06:00:00,
2013-10-18 02:05:00,47.0,47.0,29.44,SE,135,3.0,3.0,100,0.60,,,0.13,TxWx,2013-10-18 06:05:00,
2013-10-18 02:10:00,47.0,47.0,29.44,South,180,0.0,0.0,100,0.60,,,0.13,TxWx,2013-10-18 06:10:00,
2013-10-18 02:15:00,47.0,47.0,29.44,SSW,202,0.0,1.0,100,0.00,,,0.13,TxWx,2013-10-18 06:15:00,
2013-10-18 02:20:00,47.0,47.0,29.44,South,180,1.0,1.0,100,0.00,,,0.13,TxWx,2013-10-18 06:20:00,
2013-10-18 02:25:00,47.0,47.0,29.44,SSW,202,2.0,3.0,100,0.00,,,0.14,TxWx,2013-10-18 06:25:00,
2013-10-18 02:30:00,47.0,47.0,29.44,SW,225,1.0,2.0,100,0.00,,,0.14,TxWx,2013-10-18 06:30:00,
2013-10-18 02:35:00,47.0,47.0,29.44,SSW,202,0.0,0.0,100,0.60,,,0.14,TxWx,2013-10-18 06:35:00,
2013-10-18 02:40:00,47.0,47.0,29.43,WSW,247,1.0,1.0,100,0.60,,,0.14,TxWx,2013-10-18 06:40:00,
2013-10-18 02:45:00,47.0,47.0,29.43,SSW,202,1.0,1.0,100,0.00,,,0.14,TxWx,2013-10-18 06:45:00,
2013-10-18 02:51:00,47.0,47.0,29.43,WSW,247,2.0,3.0,100,0.00,,,0.14,TxWx,2013-10-18 06:51:00,
2013-10-18 02:56:00,47.0,47.0,29.43,WSW,247,2.0,2.0,100,0.00,,,0.14,TxWx,2013-10-18 06:56:00,
2013-10-18 02:58:00,51.0,49.0,29.56,SSW,202,5.0,5.0,92,0.00,,,0.18,TxWx,2013-10-18 06:58:00,
2013-10-18 03:00:00,51.0,48.0,29.57,WNW,292,8.0,8.0,91,0.00,,,0.18,TxWx,2013-10-18 07:00:00,
2013-10-18 03:01:00,47.0,47.0,29.43,SW,225,3.0,3.0,100,0.00,,,0.14,TxWx,2013-10-18 07:01:00,
2013-10-18 03:03:00,50.0,47.0,29.57,WNW,292,8.0,10.0,88,0.00,,,0.18,TxWx,2013-10-18 07:03:00,
2013-10-18 03:05:00,50.0,47.0,29.57,NW,315,3.0,4.0,88,0.00,,,0.18,TxWx,2013-10-18 07:05:00,
2013-10-18 03:06:00,47.0,47.0,29.44,West,270,2.0,3.0,100,0.00,,,0.14,TxWx,2013-10-18 07:06:00,
2013-10-18 03:08:00,50.0,47.0,29.57,West,270,10.0,12.0,89,0.00,,,0.18,TxWx,2013-10-18 07:08:00,
2013-10-18 03:11:00,47.0,47.0,29.43,WNW,292,3.0,3.0,100,0.00,,,0.14,TxWx,2013-10-18 07:11:00,
2013-10-18 03:12:00,50.0,47.0,29.57,WNW,292,5.0,7.0,88,0.00,,,0.18,TxWx,2013-10-18 07:12:00,
2013-10-18 03:14:00,49.0,45.0,29.57,WNW,292,6.0,10.0,88,0.00,,,0.18,TxWx,2013-10-18 07:14:00,
2013-10-18 03:16:00,47.0,47.0,29.43,WSW,247,2.0,2.0,100,0.00,,,0.14,TxWx,2013-10-18 07:16:00,
2013-10-18 03:18:00,49.0,45.0,29.57,NW,315,5.0,6.0,88,0.00,,,0.18,TxWx,2013-10-18 07:18:00,
2013-10-18 03:19:00,49.0,45.0,29.57,SSW,202,6.0,8.0,88,0.00,,,0.18,TxWx,2013-10-18 07:19:00,
2013-10-18 03:20:00,49.0,46.0,29.57,NW,315,3.0,6.0,88,0.00,,,0.18,TxWx,2013-10-18 07:20:00,
2013-10-18 03:21:00,47.0,47.0,29.44,WSW,247,2.0,2.0,100,0.00,,,0.14,TxWx,2013-10-18 07:21:00,
2013-10-18 03:22:00,49.0,46.0,29.57,West,270,6.0,7.0,88,0.00,,,0.18,TxWx,2013-10-18 07:22:00,
2013-10-18 03:26:00,47.0,47.0,29.44,SW,225,2.0,2.0,100,0.00,,,0.14,TxWx,2013-10-18 07:26:00,
2013-10-18 03:27:00,49.0,46.0,29.57,West,270,3.0,5.0,89,0.00,,,0.18,TxWx,2013-10-18 07:27:00,
2013-10-18 03:29:00,49.0,46.0,29.57,WSW,247,3.0,6.0,89,0.00,,,0.18,TxWx,2013-10-18 07:29:00,
2013-10-18 03:30:00,48.0,45.0,29.57,West,270,10.0,10.0,89,0.00,,,0.18,TxWx,2013-10-18 07:30:00,
2013-10-18 03:31:00,47.0,47.0,29.44,West,270,3.0,4.0,100,0.00,,,0.14,TxWx,2013-10-18 07:31:00,
2013-10-18 03:32:00,48.0,45.0,29.57,West,270,6.0,7.0,90,0.00,,,0.18,TxWx,2013-10-18 07:32:00,
2013-10-18 03:33:00,48.0,45.0,29.57,West,270,8.0,8.0,90,0.00,,,0.18,TxWx,2013-10-18 07:33:00,
2013-10-18 03:36:00,47.0,47.0,29.44,WNW,292,3.0,3.0,100,0.00,,,0.14,TxWx,2013-10-18 07:36:00,
2013-10-18 03:41:00,47.0,47.0,29.44,South,180,1.0,1.0,100,0.00,,,0.14,TxWx,2013-10-18 07:41:00,
2013-10-18 03:46:00,47.0,47.0,29.44,SW,225,2.0,3.0,100,0.00,,,0.14,TxWx,2013-10-18 07:46:00,
2013-10-18 03:51:00,47.0,47.0,29.44,SW,225,2.0,2.0,100,0.00,,,0.14,TxWx,2013-10-18 07:51:00,
2013-10-18 03:56:00,47.0,47.0,29.44,SSW,202,2.0,3.0,100,0.00,,,0.14,TxWx,2013-10-18 07:56:00,
2013-10-18 04:01:00,47.0,47.0,29.45,West,270,2.0,2.0,100,0.00,,,0.14,TxWx,2013-10-18 08:01:00,
2013-10-18 04:06:00,47.0,47.0,29.44,SSW,202,1.0,2.0,100,0.00,,,0.14,TxWx,2013-10-18 08:06:00,
2013-10-18 04:12:00,47.0,47.0,29.45,SW,225,1.0,3.0,100,0.00,,,0.14,TxWx,2013-10-18 08:12:00,
2013-10-18 04:17:00,47.0,47.0,29.45,West,270,3.0,3.0,100,0.00,,,0.14,TxWx,2013-10-18 08:17:00,
2013-10-18 04:21:00,47.0,47.0,29.45,South,180,1.0,1.0,100,0.00,,,0.14,TxWx,2013-10-18 08:21:00,
2013-10-18 04:27:00,47.0,47.0,29.46,SW,225,1.0,2.0,100,0.00,,,0.14,TxWx,2013-10-18 08:27:00,
2013-10-18 04:32:00,47.0,47.0,29.46,SSW,202,3.0,3.0,100,0.00,,,0.14,TxWx,2013-10-18 08:32:00,
2013-10-18 04:33:00,47.0,46.0,29.57,SW,225,6.0,7.0,98,0.60,,,0.19,TxWx,2013-10-18 08:33:00,
2013-10-18 04:34:00,47.0,46.0,29.57,WNW,292,7.0,10.0,98,0.60,,,0.19,TxWx,2013-10-18 08:34:00,
2013-10-18 04:35:00,47.0,46.0,29.57,West,270,6.0,6.0,98,0.60,,,0.19,TxWx,2013-10-18 08:35:00,
2013-10-18 04:36:00,47.0,46.0,29.58,NW,315,6.0,9.0,98,0.60,,,0.19,TxWx,2013-10-18 08:36:00,
2013-10-18 04:37:00,47.0,47.0,29.46,WNW,292,2.0,4.0,100,0.00,,,0.15,TxWx,2013-10-18 08:37:00,
2013-10-18 04:38:00,47.0,46.0,29.57,WSW,247,10.0,11.0,98,0.60,,,0.19,TxWx,2013-10-18 08:38:00,
2013-10-18 04:39:00,47.0,46.0,29.57,WSW,247,4.0,8.0,98,0.60,,,0.19,TxWx,2013-10-18 08:39:00,
2013-10-18 04:40:00,47.0,46.0,29.58,West,270,10.0,14.0,98,0.00,,,0.19,TxWx,2013-10-18 08:40:00,
2013-10-18 04:41:00,47.0,46.0,29.57,West,270,6.0,6.0,98,0.00,,,0.19,TxWx,2013-10-18 08:41:00,
2013-10-18 04:42:00,47.0,47.0,29.46,West,270,6.0,6.0,100,0.60,,,0.15,TxWx,2013-10-18 08:42:00,
2013-10-18 04:43:00,47.0,46.0,29.58,WSW,247,14.0,16.0,98,0.00,,,0.19,TxWx,2013-10-18 08:43:00,
2013-10-18 04:44:00,47.0,46.0,29.57,West,270,7.0,13.0,98,0.00,,,0.19,TxWx,2013-10-18 08:44:00,
2013-10-18 04:45:00,47.0,46.0,29.57,WNW,292,11.0,12.0,98,0.00,,,0.19,TxWx,2013-10-18 08:45:00,
2013-10-18 04:47:00,47.0,47.0,29.46,WSW,247,5.0,7.0,100,0.60,,,0.15,TxWx,2013-10-18 08:47:00,
2013-10-18 04:52:00,47.0,47.0,29.46,WNW,292,5.0,5.0,100,0.00,,,0.15,TxWx,2013-10-18 08:52:00,
2013-10-18 04:57:00,47.0,47.0,29.46,SSW,202,5.0,5.0,100,0.00,,,0.15,TxWx,2013-10-18 08:57:00,
2013-10-18 05:02:00,47.0,47.0,29.47,NW,315,4.0,5.0,100,0.00,,,0.15,TxWx,2013-10-18 09:02:00,
2013-10-18 05:07:00,47.0,47.0,29.47,West,270,4.0,5.0,100,0.00,,,0.15,TxWx,2013-10-18 09:07:00,
2013-10-18 05:12:00,47.0,47.0,29.47,West,270,2.0,2.0,100,0.00,,,0.15,TxWx,2013-10-18 09:12:00,
2013-10-18 05:17:00,47.0,47.0,29.47,NW,315,8.0,10.0,100,0.00,,,0.15,TxWx,2013-10-18 09:17:00,
2013-10-18 05:23:00,47.0,47.0,29.47,West,270,8.0,8.0,100,0.00,,,0.15,TxWx,2013-10-18 09:23:00,
2013-10-18 05:28:00,47.0,47.0,29.47,West,270,3.0,3.0,100,0.00,,,0.15,TxWx,2013-10-18 09:28:00,
2013-10-18 05:33:00,47.0,47.0,29.48,SW,225,1.0,3.0,100,0.00,,,0.15,TxWx,2013-10-18 09:33:00,
2013-10-18 05:38:00,47.0,47.0,29.48,WSW,247,2.0,2.0,100,0.00,,,0.15,TxWx,2013-10-18 09:38:00,
2013-10-18 05:43:00,47.0,47.0,29.48,West,270,4.0,4.0,100,0.00,,,0.15,TxWx,2013-10-18 09:43:00,
2013-10-18 05:48:00,47.0,47.0,29.48,West,270,3.0,5.0,100,0.00,,,0.15,TxWx,2013-10-18 09:48:00,
2013-10-18 05:53:00,47.0,47.0,29.48,South,180,3.0,3.0,100,0.00,,,0.15,TxWx,2013-10-18 09:53:00,
2013-10-18 05:58:00,47.0,47.0,29.48,SW,225,1.0,3.0,100,0.00,,,0.15,TxWx,2013-10-18 09:58:00,
2013-10-18 06:03:00,47.0,47.0,29.48,WSW,247,3.0,3.0,100,0.00,,,0.15,TxWx,2013-10-18 10:03:00,
2013-10-18 06:08:00,47.0,47.0,29.48,WSW,247,3.0,3.0,100,0.00,,,0.15,TxWx,2013-10-18 10:08:00,
2013-10-18 06:13:00,47.0,47.0,29.49,WSW,247,2.0,3.0,100,0.00,,,0.15,TxWx,2013-10-18 10:13:00,
2013-10-18 06:18:00,47.0,47.0,29.48,WSW,247,1.0,2.0,100,0.00,,,0.16,TxWx,2013-10-18 10:18:00,
2013-10-18 06:23:00,47.0,47.0,29.49,WSW,247,3.0,5.0,100,0.60,,,0.16,TxWx,2013-10-18 10:23:00,
2013-10-18 06:29:00,47.0,47.0,29.49,SW,225,1.0,2.0,100,0.60,,,0.16,TxWx,2013-10-18 10:29:00,
2013-10-18 06:34:00,47.0,47.0,29.49,SSW,202,2.0,2.0,100,0.00,,,0.16,TxWx,2013-10-18 10:34:00,
2013-10-18 06:39:00,47.0,47.0,29.49,SSW,202,3.0,5.0,100,0.00,,,0.16,TxWx,2013-10-18 10:39:00,
2013-10-18 06:44:00,47.0,47.0,29.49,West,270,5.0,5.0,100,0.00,,,0.16,TxWx,2013-10-18 10:44:00,
2013-10-18 06:49:00,47.0,47.0,29.49,West,270,2.0,3.0,100,0.00,,,0.16,TxWx,2013-10-18 10:49:00,
2013-10-18 06:54:00,47.0,47.0,29.49,WSW,247,3.0,4.0,100,0.00,,,0.16,TxWx,2013-10-18 10:54:00,
2013-10-18 06:59:00,47.0,47.0,29.49,West,270,3.0,3.0,100,0.00,,,0.16,TxWx,2013-10-18 10:59:00,
2013-10-18 07:04:00,47.0,47.0,29.49,WSW,247,3.0,3.0,100,0.00,,,0.16,TxWx,2013-10-18 11:04:00,
2013-10-18 07:09:00,47.0,47.0,29.49,West,270,5.0,5.0,100,0.00,,,0.16,TxWx,2013-10-18 11:09:00,
2013-10-18 07:14:00,47.0,47.0,29.49,WSW,247,5.0,6.0,100,0.00,,,0.16,TxWx,2013-10-18 11:14:00,
2013-10-18 07:19:00,47.0,47.0,29.49,SSW,202,3.0,4.0,100,0.00,,,0.16,TxWx,2013-10-18 11:19:00,
2013-10-18 07:24:00,47.0,47.0,29.49,West,270,6.0,6.0,100,0.00,,,0.16,TxWx,2013-10-18 11:24:00,
2013-10-18 07:30:00,47.0,47.0,29.49,SW,225,3.0,5.0,100,0.00,,,0.16,TxWx,2013-10-18 11:30:00,
2013-10-18 07:35:00,47.0,47.0,29.50,SSW,202,5.0,8.0,100,0.00,,,0.16,TxWx,2013-10-18 11:35:00,
2013-10-18 07:40:00,47.0,47.0,29.50,WSW,247,8.0,8.0,100,0.00,,,0.16,TxWx,2013-10-18 11:40:00,
2013-10-18 07:45:00,47.0,47.0,29.50,WSW,247,4.0,5.0,100,0.00,,,0.16,TxWx,2013-10-18 11:45:00,
2013-10-18 07:50:00,47.0,47.0,29.50,SSW,202,3.0,3.0,100,0.00,,,0.16,TxWx,2013-10-18 11:50:00,
2013-10-18 07:55:00,47.0,47.0,29.51,WSW,247,3.0,4.0,100,0.00,,,0.16,TxWx,2013-10-18 11:55:00,
2013-10-18 08:00:00,47.0,47.0,29.51,WNW,292,3.0,3.0,100,0.00,,,0.16,TxWx,2013-10-18 12:00:00,
2013-10-18 08:05:00,47.0,47.0,29.51,SSW,202,3.0,3.0,100,0.00,,,0.16,TxWx,2013-10-18 12:05:00,
2013-10-18 08:10:00,47.0,47.0,29.51,SW,225,3.0,3.0,100,0.00,,,0.16,TxWx,2013-10-18 12:10:00,
2013-10-18 08:15:00,47.0,47.0,29.51,SW,225,4.0,5.0,100,0.00,,,0.16,TxWx,2013-10-18 12:15:00,
2013-10-18 08:20:00,47.0,47.0,29.52,WSW,247,4.0,4.0,100,0.00,,,0.16,TxWx,2013-10-18 12:20:00,
2013-10-18 08:25:00,47.0,47.0,29.51,WNW,292,6.0,7.0,100,0.00,,,0.16,TxWx,2013-10-18 12:25:00,
2013-10-18 08:30:00,47.0,47.0,29.52,WSW,247,5.0,6.0,100,0.00,,,0.16,TxWx,2013-10-18 12:30:00,
2013-10-18 08:35:00,48.0,48.0,29.52,WSW,247,15.0,15.0,100,0.00,,,0.16,TxWx,2013-10-18 12:35:00,
2013-10-18 08:40:00,48.0,48.0,29.52,WSW,247,8.0,10.0,100,0.00,,,0.16,TxWx,2013-10-18 12:40:00,
2013-10-18 08:45:00,48.0,48.0,29.53,SW,225,3.0,3.0,100,0.00,,,0.16,TxWx,2013-10-18 12:45:00,
2013-10-18 08:50:00,48.0,48.0,29.53,West,270,3.0,6.0,100,0.00,,,0.16,TxWx,2013-10-18 12:50:00,
2013-10-18 08:55:00,48.0,48.0,29.53,SSW,202,5.0,5.0,100,0.00,,,0.16,TxWx,2013-10-18 12:55:00,
2013-10-18 09:00:00,48.0,48.0,29.53,SSW,202,3.0,3.0,100,0.00,,,0.16,TxWx,2013-10-18 13:00:00,
2013-10-18 09:05:00,48.0,48.0,29.53,SW,225,5.0,6.0,100,0.00,,,0.16,TxWx,2013-10-18 13:05:00,
2013-10-18 09:10:00,48.0,48.0,29.53,SE,135,2.0,5.0,100,0.00,,,0.16,TxWx,2013-10-18 13:10:00,
2013-10-18 09:15:00,48.0,48.0,29.54,WSW,247,5.0,6.0,100,0.00,,,0.16,TxWx,2013-10-18 13:15:00,
2013-10-18 09:21:00,48.0,48.0,29.54,WSW,247,4.0,4.0,100,0.00,,,0.16,TxWx,2013-10-18 13:21:00,
2013-10-18 09:26:00,47.0,47.0,29.54,WSW,247,3.0,5.0,100,0.00,,,0.16,TxWx,2013-10-18 13:26:00,
2013-10-18 09:31:00,47.0,47.0,29.54,West,270,4.0,5.0,100,0.00,,,0.16,TxWx,2013-10-18 13:31:00,
2013-10-18 09:36:00,47.0,47.0,29.54,West,270,3.0,4.0,100,0.00,,,0.16,TxWx,2013-10-18 13:36:00,
2013-10-18 09:41:00,47.0,47.0,29.54,WNW,292,6.0,8.0,100,0.00,,,0.16,TxWx,2013-10-18 13:41:00,
2013-10-18 09:46:00,47.0,47.0,29.54,SW,225,4.0,5.0,100,0.00,,,0.16,TxWx,2013-10-18 13:46:00,
2013-10-18 09:51:00,47.0,47.0,29.54,West,270,2.0,3.0,100,0.00,,,0.16,TxWx,2013-10-18 13:51:00,
2013-10-18 09:56:00,47.0,47.0,29.54,SW,225,5.0,7.0,100,0.00,,,0.16,TxWx,2013-10-18 13:56:00,
2013-10-18 10:01:00,47.0,47.0,29.54,WSW,247,8.0,8.0,100,0.00,,,0.16,TxWx,2013-10-18 14:01:00,
2013-10-18 10:06:00,48.0,48.0,29.54,WNW,292,6.0,6.0,100,0.00,,,0.16,TxWx,2013-10-18 14:06:00,
2013-10-18 10:11:00,47.0,47.0,29.55,West,270,5.0,5.0,100,0.00,,,0.16,TxWx,2013-10-18 14:11:00,
2013-10-18 10:16:00,47.0,47.0,29.55,West,270,6.0,6.0,99,0.00,,,0.16,TxWx,2013-10-18 14:16:00,
2013-10-18 10:21:00,47.0,47.0,29.55,WSW,247,8.0,10.0,99,0.00,,,0.16,TxWx,2013-10-18 14:21:00,
2013-10-18 10:26:00,47.0,47.0,29.55,West,270,6.0,9.0,99,0.00,,,0.16,TxWx,2013-10-18 14:26:00,
2013-10-18 10:31:00,47.0,47.0,29.56,NW,315,10.0,10.0,100,0.60,,,0.17,TxWx,2013-10-18 14:31:00,
2013-10-18 10:36:00,47.0,47.0,29.56,SW,225,6.0,6.0,100,0.60,,,0.17,TxWx,2013-10-18 14:36:00,
2013-10-18 10:42:00,47.0,47.0,29.56,West,270,9.0,10.0,100,0.00,,,0.17,TxWx,2013-10-18 14:42:00,
2013-10-18 10:47:00,47.0,47.0,29.56,WNW,292,9.0,10.0,100,0.00,,,0.18,TxWx,2013-10-18 14:47:00,
2013-10-18 10:52:00,47.0,47.0,29.55,WSW,247,5.0,9.0,100,0.60,,,0.18,TxWx,2013-10-18 14:52:00,
2013-10-18 10:57:00,48.0,48.0,29.55,West,270,7.0,8.0,100,0.60,,,0.18,TxWx,2013-10-18 14:57:00,
2013-10-18 11:02:00,48.0,48.0,29.56,WNW,292,8.0,11.0,100,0.00,,,0.18,TxWx,2013-10-18 15:02:00,
2013-10-18 11:07:00,48.0,48.0,29.55,WNW,292,5.0,6.0,100,0.00,,,0.18,TxWx,2013-10-18 15:07:00,
2013-10-18 11:12:00,48.0,48.0,29.56,WSW,247,6.0,6.0,100,0.00,,,0.18,TxWx,2013-10-18 15:12:00,
2013-10-18 11:17:00,48.0,48.0,29.56,West,270,14.0,14.0,100,0.00,,,0.18,TxWx,2013-10-18 15:17:00,
2013-10-18 11:22:00,48.0,48.0,29.56,WSW,247,8.0,8.0,99,0.00,,,0.18,TxWx,2013-10-18 15:22:00,
2013-10-18 11:27:00,48.0,48.0,29.56,WNW,292,5.0,7.0,99,0.00,,,0.18,TxWx,2013-10-18 15:27:00,
2013-10-18 11:32:00,48.0,48.0,29.56,WSW,247,5.0,6.0,99,0.00,,,0.18,TxWx,2013-10-18 15:32:00,
2013-10-18 11:37:00,49.0,48.0,29.56,WSW,247,6.0,9.0,98,0.00,,,0.18,TxWx,2013-10-18 15:37:00,
2013-10-18 11:42:00,49.0,48.0,29.56,West,270,5.0,6.0,97,0.00,,,0.18,TxWx,2013-10-18 15:42:00,
2013-10-18 11:47:00,50.0,49.0,29.57,West,270,10.0,13.0,96,0.00,,,0.18,TxWx,2013-10-18 15:47:00,
2013-10-18 11:52:00,50.0,48.0,29.57,WSW,247,7.0,8.0,94,0.00,,,0.18,TxWx,2013-10-18 15:52:00,
2013-10-18 11:57:00,50.0,48.0,29.57,West,270,7.0,9.0,92,0.00,,,0.18,TxWx,2013-10-18 15:57:00,
2013-10-18 12:02:00,50.0,47.0,29.57,NW,315,9.0,13.0,90,0.00,,,0.18,TxWx,2013-10-18 16:02:00,
2013-10-18 12:07:00,50.0,47.0,29.57,SW,225,5.0,5.0,88,0.00,,,0.18,TxWx,2013-10-18 16:07:00,
2013-10-18 12:12:00,50.0,47.0,29.57,WNW,292,8.0,11.0,88,0.00,,,0.18,TxWx,2013-10-18 16:12:00,
2013-10-18 12:17:00,49.0,45.0,29.57,SW,225,6.0,6.0,88,0.00,,,0.18,TxWx,2013-10-18 16:17:00,
2013-10-18 12:22:00,49.0,46.0,29.57,SSW,202,3.0,5.0,88,0.00,,,0.18,TxWx,2013-10-18 16:22:00,
2013-10-18 12:27:00,49.0,46.0,29.57,West,270,3.0,5.0,89,0.00,,,0.18,TxWx,2013-10-18 16:27:00,
2013-10-18 12:32:00,48.0,45.0,29.57,SW,225,2.0,4.0,89,0.00,,,0.18,TxWx,2013-10-18 16:32:00,
2013-10-18 12:37:00,48.0,45.0,29.57,West,270,5.0,5.0,90,0.00,,,0.18,TxWx,2013-10-18 16:37:00,
2013-10-18 12:42:00,48.0,45.0,29.57,SE,135,3.0,4.0,91,0.00,,,0.18,TxWx,2013-10-18 16:42:00,
2013-10-18 12:48:00,47.0,45.0,29.57,WSW,247,8.0,10.0,92,0.00,,,0.18,TxWx,2013-10-18 16:48:00,
2013-10-18 12:53:00,47.0,45.0,29.58,SW,225,4.0,5.0,93,0.00,,,0.18,TxWx,2013-10-18 16:53:00,
2013-10-18 12:58:00,47.0,45.0,29.58,WNW,292,3.0,3.0,94,0.00,,,0.18,TxWx,2013-10-18 16:58:00,
2013-10-18 13:03:00,47.0,46.0,29.58,SSW,202,1.0,1.0,95,0.00,,,0.18,TxWx,2013-10-18 17:03:00,
2013-10-18 13:08:00,47.0,46.0,29.58,West,270,5.0,5.0,96,0.00,,,0.18,TxWx,2013-10-18 17:08:00,
2013-10-18 13:13:00,47.0,46.0,29.57,WSW,247,6.0,6.0,96,0.00,,,0.18,TxWx,2013-10-18 17:13:00,
2013-10-18 13:18:00,47.0,46.0,29.57,SW,225,4.0,6.0,97,0.00,,,0.18,TxWx,2013-10-18 17:18:00,
2013-10-18 13:23:00,47.0,46.0,29.57,NW,315,8.0,8.0,97,0.00,,,0.18,TxWx,2013-10-18 17:23:00,
2013-10-18 13:28:00,47.0,46.0,29.57,West,270,5.0,5.0,98,0.00,,,0.18,TxWx,2013-10-18 17:28:00,
2013-10-18 13:33:00,47.0,46.0,29.57,WSW,247,4.0,5.0,98,0.60,,,0.19,TxWx,2013-10-18 17:33:00,
2013-10-18 13:38:00,47.0,46.0,29.58,SW,225,5.0,8.0,98,0.60,,,0.19,TxWx,2013-10-18 17:38:00,
2013-10-18 13:43:00,47.0,46.0,29.57,WNW,292,5.0,5.0,98,0.00,,,0.19,TxWx,2013-10-18 17:43:00,
2013-10-18 13:48:00,47.0,46.0,29.58,WSW,247,10.0,14.0,98,0.00,,,0.19,TxWx,2013-10-18 17:48:00,
2013-10-18 13:53:00,48.0,47.0,29.58,WSW,247,16.0,18.0,98,0.00,,,0.19,TxWx,2013-10-18 17:53:00,
2013-10-18 13:58:00,48.0,47.0,29.58,West,270,7.0,9.0,96,0.00,,,0.19,TxWx,2013-10-18 17:58:00,
2013-10-18 14:04:00,48.0,47.0,29.58,West,270,11.0,11.0,95,0.00,,,0.19,TxWx,2013-10-18 18:04:00,
2013-10-18 14:08:00,49.0,47.0,29.58,WSW,247,10.0,11.0,94,0.00,,,0.19,TxWx,2013-10-18 18:08:00,
2013-10-18 14:13:00,49.0,47.0,29.58,West,270,7.0,13.0,92,0.00,,,0.19,TxWx,2013-10-18 18:13:00,
2013-10-18 14:19:00,49.0,46.0,29.57,West,270,4.0,10.0,91,0.00,,,0.19,TxWx,2013-10-18 18:19:00,
2013-10-18 14:24:00,50.0,47.0,29.58,West,270,9.0,10.0,90,0.00,,,0.19,TxWx,2013-10-18 18:24:00,
2013-10-18 14:29:00,50.0,47.0,29.58,WNW,292,11.0,11.0,88,0.00,,,0.19,TxWx,2013-10-18 18:29:00,
2013-10-18 14:34:00,50.0,46.0,29.58,West,270,9.0,13.0,86,0.00,,,0.19,TxWx,2013-10-18 18:34:00,
2013-10-18 14:39:00,50.0,46.0,29.58,SW,225,6.0,8.0,85,0.00,,,0.19,TxWx,2013-10-18 18:39:00,
2013-10-18 14:44:00,50.0,46.0,29.58,SW,225,4.0,4.0,85,0.00,,,0.19,TxWx,2013-10-18 18:44:00,
2013-10-18 14:49:00,50.0,45.0,29.57,WSW,247,5.0,6.0,84,0.00,,,0.19,TxWx,2013-10-18 18:49:00,
2013-10-18 14:54:00,50.0,45.0,29.57,West,270,3.0,5.0,84,0.00,,,0.19,TxWx,2013-10-18 18:54:00,
2013-10-18 14:59:00,50.0,45.0,29.57,West,270,5.0,8.0,84,0.00,,,0.19,TxWx,2013-10-18 18:59:00,
2013-10-18 15:00:00,38.0,36.0,29.69,SSW,202,1.0,1.0,92,0.00,,,0.00,TxWx,2013-10-18 19:00:00,
2013-10-18 15:01:00,38.0,36.0,29.69,SSW,202,0.0,0.0,92,0.00,,,0.00,TxWx,2013-10-18 19:01:00,
2013-10-18 15:02:00,38.0,36.0,29.69,West,270,1.0,2.0,92,0.00,,,0.00,TxWx,2013-10-18 19:02:00,
2013-10-18 15:03:00,38.0,36.0,29.69,SSW,202,1.0,1.0,92,0.00,,,0.00,TxWx,2013-10-18 19:03:00,
2013-10-18 15:04:00,50.0,45.0,29.58,WSW,247,6.0,6.0,83,0.00,,,0.19,TxWx,2013-10-18 19:04:00,
2013-10-18 15:05:00,38.0,36.0,29.69,SW,225,1.0,1.0,93,0.00,,,0.00,TxWx,2013-10-18 19:05:00,
2013-10-18 15:06:00,38.0,36.0,29.69,SW,225,1.0,1.0,93,0.00,,,0.00,TxWx,2013-10-18 19:06:00,
2013-10-18 15:07:00,39.0,37.0,29.69,SSW,202,0.0,1.0,93,0.00,,,0.00,TxWx,2013-10-18 19:07:00,
2013-10-18 15:08:00,39.0,37.0,29.69,SSW,202,1.0,1.0,93,0.00,,,0.00,TxWx,2013-10-18 19:08:00,
2013-10-18 15:09:00,50.0,45.0,29.58,NW,315,8.0,10.0,82,0.00,,,0.19,TxWx,2013-10-18 19:09:00,
2013-10-18 15:10:00,38.0,36.0,29.69,SSW,202,1.0,1.0,93,0.00,,,0.00,TxWx,2013-10-18 19:10:00,
2013-10-18 15:11:00,38.0,36.0,29.69,WSW,247,1.0,1.0,93,0.00,,,0.00,TxWx,2013-10-18 19:11:00,
2013-10-18 15:12:00,38.0,36.0,29.69,SW,225,3.0,3.0,93,0.00,,,0.00,TxWx,2013-10-18 19:12:00,
2013-10-18 15:13:00,38.0,36.0,29.69,SW,225,1.0,2.0,93,0.00,,,0.00,TxWx,2013-10-18 19:13:00,
2013-10-18 15:14:00,50.0,45.0,29.58,SSW,202,8.0,13.0,82,0.00,,,0.19,TxWx,2013-10-18 19:14:00,
2013-10-18 15:15:00,38.0,36.0,29.69,SSW,202,1.0,1.0,93,0.00,,,0.00,TxWx,2013-10-18 19:15:00,
2013-10-18 15:16:00,38.0,36.0,29.69,SW,225,1.0,1.0,93,0.00,,,0.00,TxWx,2013-10-18 19:16:00,
2013-10-18 15:18:00,38.0,36.0,29.69,SSW,202,1.0,1.0,93,0.00,,,0.00,TxWx,2013-10-18 19:18:00,
2013-10-18 15:19:00,51.0,45.0,29.58,WSW,247,10.0,10.0,81,0.00,,,0.19,TxWx,2013-10-18 19:19:00,
2013-10-18 15:20:00,38.0,36.0,29.69,SSW,202,1.0,1.0,93,0.00,,,0.00,TxWx,2013-10-18 19:20:00,
2013-10-18 15:21:00,38.0,36.0,29.69,SW,225,1.0,2.0,93,0.00,,,0.00,TxWx,2013-10-18 19:21:00,
2013-10-18 15:22:00,38.0,36.0,29.69,SW,225,1.0,1.0,94,0.00,,,0.00,TxWx,2013-10-18 19:22:00,
2013-10-18 15:23:00,38.0,36.0,29.69,SW,225,0.0,1.0,94,0.00,,,0.00,TxWx,2013-10-18 19:23:00,
2013-10-18 15:24:00,51.0,45.0,29.59,West,270,11.0,13.0,81,0.00,,,0.19,TxWx,2013-10-18 19:24:00,
2013-10-18 15:25:00,38.0,36.0,29.69,South,180,1.0,1.0,93,0.00,,,0.00,TxWx,2013-10-18 19:25:00,
2013-10-18 15:26:00,38.0,36.0,29.69,South,180,0.0,0.0,93,0.00,,,0.00,TxWx,2013-10-18 19:26:00,
2013-10-18 15:27:00,38.0,36.0,29.69,West,270,2.0,2.0,94,0.00,,,0.00,TxWx,2013-10-18 19:27:00,
2013-10-18 15:28:00,38.0,36.0,29.69,SW,225,3.0,3.0,94,0.00,,,0.00,TxWx,2013-10-18 19:28:00,
2013-10-18 15:29:00,51.0,45.0,29.58,SW,225,7.0,10.0,79,0.00,,,0.19,TxWx,2013-10-18 19:29:00,
2013-10-18 15:31:00,38.0,36.0,29.69,SSW,202,2.0,2.0,94,0.00,,,0.00,TxWx,2013-10-18 19:31:00,
2013-10-18 15:34:00,51.0,45.0,29.59,West,270,6.0,11.0,79,0.00,,,0.19,TxWx,2013-10-18 19:34:00,
2013-10-18 15:36:00,38.0,36.0,29.69,SSW,202,1.0,1.0,94,0.00,,,0.00,TxWx,2013-10-18 19:36:00,
2013-10-18 15:37:00,38.0,36.0,29.69,South,180,1.0,2.0,94,0.00,,,0.00,TxWx,2013-10-18 19:37:00,
2013-10-18 15:39:00,52.0,46.0,29.59,SW,225,3.0,6.0,79,0.00,,,0.19,TxWx,2013-10-18 19:39:00,
2013-10-18 15:41:00,38.0,36.0,29.69,SSW,202,0.0,0.0,94,0.00,,,0.00,TxWx,2013-10-18 19:41:00,
2013-10-18 15:44:00,52.0,44.0,29.59,WSW,247,6.0,7.0,75,0.00,,,0.19,TxWx,2013-10-18 19:44:00,
2013-10-18 15:49:00,52.0,44.0,29.59,WNW,292,10.0,11.0,74,0.00,,,0.19,TxWx,2013-10-18 19:49:00,
2013-10-18 15:54:00,51.0,43.0,29.59,West,270,4.0,9.0,73,0.00,,,0.19,TxWx,2013-10-18 19:54:00,
2013-10-18 15:59:00,51.0,42.0,29.59,WSW,247,10.0,15.0,71,0.00,,,0.19,TxWx,2013-10-18 19:59:00,
2013-10-18 16:05:00,51.0,42.0,29.59,West,270,5.0,5.0,71,0.00,,,0.19,TxWx,2013-10-18 20:05:00,
2013-10-18 16:10:00,50.0,41.0,29.59,WSW,247,5.0,8.0,71,0.00,,,0.19,TxWx,2013-10-18 20:10:00,
2013-10-18 16:15:00,50.0,41.0,29.60,WNW,292,5.0,7.0,72,0.00,,,0.19,TxWx,2013-10-18 20:15:00,
2013-10-18 16:20:00,50.0,41.0,29.60,NW,315,11.0,18.0,72,0.00,,,0.19,TxWx,2013-10-18 20:20:00,
2013-10-18 16:25:00,50.0,41.0,29.60,West,270,13.0,13.0,73,0.00,,,0.19,TxWx,2013-10-18 20:25:00,
2013-10-18 16:30:00,50.0,41.0,29.60,WNW,292,10.0,11.0,72,0.00,,,0.19,TxWx,2013-10-18 20:30:00,
2013-10-18 16:35:00,50.0,40.0,29.60,NW,315,6.0,8.0,69,0.00,,,0.19,TxWx,2013-10-18 20:35:00,
2013-10-18 16:40:00,50.0,40.0,29.60,WSW,247,9.0,9.0,70,0.00,,,0.19,TxWx,2013-10-18 20:40:00,
2013-10-18 16:45:00,51.0,41.0,29.61,SSW,202,3.0,4.0,69,0.00,,,0.19,TxWx,2013-10-18 20:45:00,
2013-10-18 16:50:00,51.0,41.0,29.61,WSW,247,8.0,10.0,70,0.00,,,0.19,TxWx,2013-10-18 20:50:00,
2013-10-18 16:55:00,50.0,40.0,29.61,NW,315,8.0,11.0,69,0.00,,,0.19,TxWx,2013-10-18 20:55:00,
2013-10-18 17:00:00,50.0,41.0,29.61,West,270,4.0,5.0,70,0.00,,,0.19,TxWx,2013-10-18 21:00:00,
2013-10-18 17:06:00,50.0,41.0,29.61,SSW,202,4.0,6.0,70,0.00,,,0.19,TxWx,2013-10-18 21:06:00,
2013-10-18 17:11:00,50.0,41.0,29.61,West,270,6.0,8.0,70,0.00,,,0.19,TxWx,2013-10-18 21:11:00,
2013-10-18 17:16:00,50.0,40.0,29.61,West,270,3.0,4.0,69,0.00,,,0.19,TxWx,2013-10-18 21:16:00,
2013-10-18 17:21:00,49.0,39.0,29.62,WSW,247,9.0,9.0,69,0.00,,,0.19,TxWx,2013-10-18 21:21:00,
2013-10-18 17:26:00,49.0,39.0,29.62,WSW,247,9.0,13.0,69,0.00,,,0.19,TxWx,2013-10-18 21:26:00,
2013-10-18 17:31:00,49.0,39.0,29.62,WNW,292,5.0,5.0,70,0.00,,,0.19,TxWx,2013-10-18 21:31:00,
2013-10-18 17:36:00,49.0,39.0,29.62,SSE,157,3.0,4.0,70,0.00,,,0.19,TxWx,2013-10-18 21:36:00,
2013-10-18 17:41:00,48.0,39.0,29.62,SW,225,3.0,3.0,70,0.00,,,0.19,TxWx,2013-10-18 21:41:00,
2013-10-18 17:46:00,48.0,39.0,29.62,WSW,247,4.0,5.0,70,0.00,,,0.19,TxWx,2013-10-18 21:46:00,
2013-10-18 17:51:00,48.0,39.0,29.63,WSW,247,7.0,8.0,71,0.00,,,0.19,TxWx,2013-10-18 21:51:00,
2013-10-18 17:56:00,48.0,39.0,29.63,NW,315,5.0,6.0,72,0.00,,,0.19,TxWx,2013-10-18 21:56:00,
2013-10-18 18:01:00,48.0,39.0,29.63,WNW,292,6.0,6.0,72,0.00,,,0.19,TxWx,2013-10-18 22:01:00,
2013-10-18 18:06:00,48.0,39.0,29.64,SSW,202,5.0,5.0,72,0.00,,,0.19,TxWx,2013-10-18 22:06:00,
2013-10-18 18:11:00,48.0,39.0,29.64,WSW,247,4.0,4.0,72,0.00,,,0.19,TxWx,2013-10-18 22:11:00,
2013-10-18 18:16:00,47.0,38.0,29.64,West,270,4.0,5.0,72,0.00,,,0.19,TxWx,2013-10-18 22:16:00,
2013-10-18 18:21:00,47.0,38.0,29.64,West,270,5.0,5.0,72,0.00,,,0.19,TxWx,2013-10-18 22:21:00,
2013-10-18 18:26:00,47.0,38.0,29.64,SW,225,3.0,5.0,72,0.00,,,0.19,TxWx,2013-10-18 22:26:00,
2013-10-18 18:32:00,47.0,38.0,29.64,West,270,9.0,9.0,72,0.00,,,0.19,TxWx,2013-10-18 22:32:00,
2013-10-18 18:37:00,47.0,38.0,29.64,SW,225,2.0,2.0,71,0.00,,,0.19,TxWx,2013-10-18 22:37:00,
2013-10-18 18:42:00,46.0,37.0,29.64,West,270,3.0,4.0,72,0.00,,,0.19,TxWx,2013-10-18 22:42:00,
2013-10-18 18:47:00,46.0,37.0,29.64,WSW,247,2.0,3.0,72,0.00,,,0.19,TxWx,2013-10-18 22:47:00,
2013-10-18 18:52:00,46.0,37.0,29.64,SW,225,5.0,5.0,72,0.00,,,0.19,TxWx,2013-10-18 22:52:00,
2013-10-18 18:57:00,46.0,37.0,29.64,WSW,247,2.0,3.0,72,0.00,,,0.19,TxWx,2013-10-18 22:57:00,
2013-10-18 19:02:00,46.0,38.0,29.65,West,270,3.0,5.0,73,0.00,,,0.19,TxWx,2013-10-18 23:02:00,
2013-10-18 19:07:00,46.0,38.0,29.65,WSW,247,2.0,4.0,73,0.00,,,0.19,TxWx,2013-10-18 23:07:00,
2013-10-18 19:12:00,46.0,38.0,29.65,WSW,247,4.0,6.0,73,0.00,,,0.19,TxWx,2013-10-18 23:12:00,
2013-10-18 19:17:00,46.0,38.0,29.65,WSW,247,3.0,3.0,74,0.00,,,0.19,TxWx,2013-10-18 23:17:00,
2013-10-18 19:22:00,45.0,37.0,29.65,SW,225,1.0,1.0,74,0.00,,,0.19,TxWx,2013-10-18 23:22:00,
2013-10-18 19:27:00,45.0,37.0,29.65,SW,225,2.0,2.0,74,0.00,,,0.19,TxWx,2013-10-18 23:27:00,
2013-10-18 19:32:00,45.0,38.0,29.65,WSW,247,2.0,3.0,75,0.00,,,0.19,TxWx,2013-10-18 23:32:00,
2013-10-18 19:37:00,45.0,38.0,29.65,WSW,247,3.0,3.0,76,0.00,,,0.19,TxWx,2013-10-18 23:37:00,
2013-10-18 19:42:00,45.0,38.0,29.66,SW,225,1.0,3.0,77,0.00,,,0.19,TxWx,2013-10-18 23:42:00,
2013-10-18 19:47:00,45.0,38.0,29.66,SSW,202,0.0,1.0,77,0.00,,,0.19,TxWx,2013-10-18 23:47:00,
2013-10-18 19:52:00,45.0,38.0,29.66,WSW,247,2.0,2.0,77,0.00,,,0.19,TxWx,2013-10-18 23:52:00,
2013-10-18 19:57:00,45.0,38.0,29.66,South,180,0.0,0.0,77,0.00,,,0.19,TxWx,2013-10-18 23:57:00,
2013-10-18 20:02:00,44.0,37.0,29.66,SW,225,1.0,1.0,77,0.00,,,0.19,TxWx,2013-10-19 00:02:00,
2013-10-18 20:08:00,44.0,37.0,29.66,SW,225,1.0,1.0,78,0.00,,,0.19,TxWx,2013-10-19 00:08:00,
2013-10-18 20:13:00,44.0,37.0,29.66,SSW,202,0.0,0.0,78,0.00,,,0.19,TxWx,2013-10-19 00:13:00,
2013-10-18 20:18:00,44.0,38.0,29.66,ESE,112,3.0,3.0,78,0.00,,,0.19,TxWx,2013-10-19 00:18:00,
2013-10-18 20:23:00,44.0,38.0,29.67,SSW,202,0.0,0.0,79,0.00,,,0.19,TxWx,2013-10-19 00:23:00,
2013-10-18 20:27:00,43.0,37.0,29.67,WSW,247,2.0,2.0,80,0.00,,,0.19,TxWx,2013-10-19 00:27:00,
2013-10-18 20:32:00,43.0,37.0,29.67,SSW,202,0.0,1.0,80,0.00,,,0.19,TxWx,2013-10-19 00:32:00,
2013-10-18 20:37:00,43.0,37.0,29.66,South,180,1.0,1.0,80,0.00,,,0.19,TxWx,2013-10-19 00:37:00,
2013-10-18 20:42:00,43.0,38.0,29.67,WSW,247,5.0,5.0,82,0.00,,,0.19,TxWx,2013-10-19 00:42:00,
2013-10-18 20:47:00,43.0,38.0,29.67,SW,225,1.0,2.0,82,0.00,,,0.19,TxWx,2013-10-19 00:47:00,
2013-10-18 20:53:00,43.0,38.0,29.67,SW,225,2.0,2.0,83,0.00,,,0.19,TxWx,2013-10-19 00:53:00,
2013-10-18 20:58:00,42.0,37.0,29.67,SSW,202,1.0,1.0,83,0.00,,,0.19,TxWx,2013-10-19 00:58:00,
2013-10-18 20:59:00,33.0,33.0,29.70,SSW,202,1.0,1.0,100,0.00,,,0.00,TxWx,2013-10-19 00:59:00,
2013-10-18 21:02:00,33.0,33.0,29.71,South,180,0.0,0.0,100,0.00,,,0.00,TxWx,2013-10-19 01:02:00,
2013-10-18 21:03:00,42.0,37.0,29.67,WSW,247,3.0,3.0,83,0.00,,,0.19,TxWx,2013-10-19 01:03:00,
2013-10-18 21:05:00,33.0,33.0,29.71,South,180,0.0,0.0,100,0.00,,,0.00,TxWx,2013-10-19 01:05:00,
2013-10-18 21:06:00,33.0,33.0,29.71,South,180,0.0,0.0,100,0.00,,,0.00,TxWx,2013-10-19 01:06:00,
2013-10-18 21:07:00,33.0,33.0,29.71,South,180,0.0,0.0,100,0.00,,,0.00,TxWx,2013-10-19 01:07:00,
2013-10-18 21:08:00,42.0,37.0,29.67,West,270,2.0,3.0,84,0.00,,,0.19,TxWx,2013-10-19 01:08:00,
2013-10-18 21:09:00,33.0,33.0,29.71,South,180,0.0,0.0,100,0.00,,,0.00,TxWx,2013-10-19 01:09:00,
2013-10-18 21:11:00,33.0,33.0,29.71,South,180,0.0,0.0,100,0.00,,,0.00,TxWx,2013-10-19 01:11:00,
2013-10-18 21:12:00,33.0,33.0,29.71,South,180,0.0,0.0,100,0.00,,,0.00,TxWx,2013-10-19 01:12:00,
2013-10-18 21:13:00,42.0,38.0,29.67,SSW,202,0.0,0.0,84,0.00,,,0.19,TxWx,2013-10-19 01:13:00,
2013-10-18 21:14:00,33.0,33.0,29.70,SSE,157,0.0,0.0,100,0.00,,,0.00,TxWx,2013-10-19 01:14:00,
2013-10-18 21:15:00,33.0,33.0,29.70,SE,135,0.0,0.0,100,0.00,,,0.00,TxWx,2013-10-19 01:15:00,
2013-10-18 21:17:00,33.0,33.0,29.71,SSE,157,0.0,0.0,100,0.00,,,0.00,TxWx,2013-10-19 01:17:00,
2013-10-18 21:18:00,41.0,37.0,29.67,WSW,247,1.0,2.0,84,0.00,,,0.19,TxWx,2013-10-19 01:18:00,
2013-10-18 21:19:00,33.0,33.0,29.71,South,180,0.0,0.0,100,0.00,,,0.00,TxWx,2013-10-19 01:19:00,
2013-10-18 21:23:00,41.0,37.0,29.67,WSW,247,2.0,2.0,85,0.00,,,0.19,TxWx,2013-10-19 01:23:00,
2013-10-18 21:24:00,33.0,33.0,29.71,South,180,0.0,0.0,100,0.00,,,0.00,TxWx,2013-10-19 01:24:00,
2013-10-18 21:25:00,33.0,33.0,29.71,SSW,202,0.0,0.0,100,0.00,,,0.00,TxWx,2013-10-19 01:25:00,
2013-10-18 21:28:00,41.0,37.0,29.67,SW,225,2.0,2.0,86,0.00,,,0.19,TxWx,2013-10-19 01:28:00,
2013-10-18 21:33:00,41.0,37.0,29.67,SW,225,3.0,3.0,87,0.00,,,0.19,TxWx,2013-10-19 01:33:00,
2013-10-18 21:38:00,41.0,37.0,29.68,WSW,247,3.0,3.0,87,0.00,,,0.19,TxWx,2013-10-19 01:38:00,
2013-10-18 21:43:00,41.0,37.0,29.67,SW,225,1.0,1.0,87,0.00,,,0.19,TxWx,2013-10-19 01:43:00,
2013-10-18 21:48:00,41.0,38.0,29.68,WSW,247,1.0,1.0,88,0.00,,,0.19,TxWx,2013-10-19 01:48:00,
2013-10-18 21:53:00,41.0,38.0,29.68,WNW,292,2.0,3.0,88,0.00,,,0.19,TxWx,2013-10-19 01:53:00,
2013-10-18 21:58:00,41.0,38.0,29.68,SSW,202,2.0,2.0,88,0.00,,,0.19,TxWx,2013-10-19 01:58:00,
2013-10-18 22:03:00,41.0,38.0,29.68,SSW,202,1.0,2.0,89,0.00,,,0.19,TxWx,2013-10-19 02:03:00,
2013-10-18 22:08:00,41.0,38.0,29.68,West,270,1.0,2.0,88,0.00,,,0.19,TxWx,2013-10-19 02:08:00,
2013-10-18 22:13:00,41.0,38.0,29.68,SSW,202,0.0,0.0,89,0.00,,,0.19,TxWx,2013-10-19 02:13:00,
2013-10-18 22:18:00,41.0,38.0,29.69,WSW,247,1.0,2.0,89,0.00,,,0.19,TxWx,2013-10-19 02:18:00,
2013-10-18 22:23:00,41.0,38.0,29.69,SW,225,1.0,2.0,89,0.00,,,0.19,TxWx,2013-10-19 02:23:00,
2013-10-18 22:28:00,41.0,38.0,29.68,SSW,202,0.0,0.0,89,0.00,,,0.19,TxWx,2013-10-19 02:28:00,
2013-10-18 22:33:00,41.0,38.0,29.68,West,270,0.0,0.0,90,0.00,,,0.19,TxWx,2013-10-19 02:33:00,
2013-10-18 22:38:00,41.0,38.0,29.69,SSW,202,1.0,1.0,89,0.00,,,0.19,TxWx,2013-10-19 02:38:00,
2013-10-18 22:43:00,40.0,37.0,29.69,SSW,202,0.0,0.0,89,0.00,,,0.19,TxWx,2013-10-19 02:43:00,
2013-10-18 22:48:00,41.0,38.0,29.69,West,270,3.0,3.0,90,0.00,,,0.19,TxWx,2013-10-19 02:48:00,
2013-10-18 22:53:00,40.0,37.0,29.69,SW,225,2.0,2.0,90,0.00,,,0.19,TxWx,2013-10-19 02:53:00,
2013-10-18 22:58:00,40.0,37.0,29.69,SSW,202,0.0,1.0,90,0.00,,,0.19,TxWx,2013-10-19 02:58:00,
2013-10-18 23:03:00,40.0,37.0,29.69,SSW,202,1.0,1.0,90,0.00,,,0.19,TxWx,2013-10-19 03:03:00,
2013-10-18 23:08:00,40.0,37.0,29.69,West,270,2.0,2.0,91,0.00,,,0.19,TxWx,2013-10-19 03:08:00,
2013-10-18 23:13:00,41.0,39.0,29.69,WSW,247,3.0,4.0,92,0.00,,,0.19,TxWx,2013-10-19 03:13:00,
2013-10-18 23:18:00,41.0,39.0,29.69,West,270,1.0,3.0,92,0.00,,,0.19,TxWx,2013-10-19 03:18:00,
2013-10-18 23:23:00,40.0,38.0,29.69,SSW,202,1.0,1.0,92,0.00,,,0.19,TxWx,2013-10-19 03:23:00,
2013-10-18 23:28:00,40.0,38.0,29.69,SW,225,0.0,1.0,92,0.00,,,0.19,TxWx,2013-10-19 03:28:00,
2013-10-18 23:33:00,40.0,38.0,29.69,SSW,202,0.0,1.0,92,0.00,,,0.19,TxWx,2013-10-19 03:33:00,
2013-10-18 23:38:00,40.0,38.0,29.69,SW,225,1.0,1.0,92,0.00,,,0.19,TxWx,2013-10-19 03:38:00,
2013-10-18 23:43:00,40.0,38.0,29.68,SSW,202,0.0,1.0,92,0.00,,,0.19,TxWx,2013-10-19 03:43:00,
2013-10-18 23:48:00,40.0,38.0,29.69,SSW,202,0.0,0.0,92,0.00,,,0.19,TxWx,2013-10-19 03:48:00,
2013-10-18 23:53:00,39.0,37.0,29.69,SW,225,2.0,3.0,92,0.00,,,0.19,TxWx,2013-10-19 03:53:00,
2013-10-18 23:58:00,38.0,36.0,29.69,West,270,3.0,3.0,92,0.00,,,0.19,TxWx,2013-10-19 03:58:00,